Middletown, OH

1:33 PM EDT on March 23, 2017 (GMT -0400)
Hook Field Municipal

Weather History for KMWO - December, 2012

Change the Weather History Date:

Thursday, December 6, 2012

  Actual Average (KFFO) Record (KFFO)
Temperature  
Mean Temperature 38 °F -  
Max Temperature 47 °F 43 °F 71 °F (1998)
Min Temperature 29 °F 28 °F 8 °F (2007)
Degree Days  
Heating Degree Days 27    
Moisture  
Dew Point 38 °F    
Average Humidity 83    
Maximum Humidity 100    
Minimum Humidity 68    
Precipitation  
Precipitation 0.00 in - - ()
Sea Level Pressure  
Sea Level Pressure 30.09 in    
Wind  
Wind Speed 2 mph (SE)    
Max Wind Speed 7 mph    
Max Gust Speed -    
Visibility 10 miles    
Events      
Averages and records for this station are not official NWS values.
T = Trace of Precipitation, MM = Missing Value Source: NWS Daily Summary

Daily Weather History Graph

Daily Weather History Graph

Search for Another Location

Airport or City:

Trip Planner

Search our weather history database for the weather conditions in past years. The results will help you decide how hot, cold, wet, or windy it might be!

Date:

Astronomy

Dec. 06, 2012 Rise Set
Actual Time 7:44 AM EST 5:13 PM EST
Civil Twilight 7:14 AM EST 5:43 PM EST
Nautical Twilight 6:40 AM EST 6:17 PM EST
Astronomical Twilight 6:07 AM EST 6:49 PM EST
Moon 12:01 AM EST (12/6) 12:37 PM EST (12/6)
Length of Visible Light 10h 29m
Length of Day
9h 29m
Waning Gibbous, 49% of the Moon is Illuminated
Dec 6
Waning Gibbous
Dec 13
New
Dec 20
First Quarter
Dec 28
Full
Jan 4
Last Quarter

Hourly Weather History & Observations

Time (EST) Temp. Windchill Dew Point Humidity Pressure Visibility Wind Dir Wind Speed Gust Speed Precip Events Conditions
8:35 AM 29.3 °F - 29.1 °F 99% 30.24 in 10.0 mi Calm Calm - N/A   Clear
8:55 AM 32.5 °F 29.3 °F 31.3 °F 95% 30.23 in 10.0 mi ENE 3.5 mph - N/A   Clear
9:15 AM 32.5 °F - 30.2 °F 91% 30.23 in 10.0 mi Calm Calm - N/A   Clear
9:35 AM 32.5 °F - 29.8 °F 90% 30.22 in 10.0 mi Calm Calm - N/A   Clear
9:55 AM 33.3 °F - 30.0 °F 88% 30.21 in 10.0 mi Calm Calm - N/A   Clear
10:15 AM 35.1 °F - 30.7 °F 84% 30.21 in 10.0 mi Calm Calm - N/A   Clear
10:35 AM 35.1 °F 32.2 °F 30.9 °F 85% 30.21 in 10.0 mi SE 3.5 mph - N/A   Clear
10:55 AM 37.6 °F 35.1 °F 32.5 °F 82% 30.20 in 10.0 mi SE 3.5 mph - N/A   Clear
11:15 AM 37.6 °F 35.1 °F 32.2 °F 81% 30.18 in 10.0 mi SE 3.5 mph - N/A   Clear
11:35 AM 37.6 °F - 32.0 °F 80% 30.17 in 10.0 mi Calm Calm - N/A   Clear
11:55 AM 39.0 °F - 33.1 °F 79% 30.16 in 10.0 mi Calm Calm - N/A   Clear
12:15 PM 40.1 °F - 33.1 °F 76% 30.15 in 10.0 mi Calm Calm - N/A   Clear
12:35 PM 41.0 °F 39.0 °F 33.8 °F 76% 30.14 in 10.0 mi NE 3.5 mph - N/A   Clear
12:55 PM 42.6 °F - 34.9 °F 74% 30.13 in 10.0 mi Calm Calm - N/A   Clear
1:15 PM 44.6 °F 43.1 °F 36.3 °F 73% 30.11 in 10.0 mi ESE 3.5 mph - N/A   Clear
1:35 PM 45.1 °F 43.7 °F 36.7 °F 72% 30.10 in 10.0 mi SSE 3.5 mph - N/A   Clear
1:55 PM 47.7 °F - 38.1 °F 70% 30.09 in 10.0 mi Calm Calm - N/A   Clear
2:15 PM 47.7 °F - 38.1 °F 70% 30.07 in 10.0 mi SSE 5.8 mph - N/A   Clear
2:35 PM 47.7 °F - 37.8 °F 69% 30.06 in 10.0 mi ESE 4.6 mph - N/A   Clear
2:55 PM 47.7 °F - 37.4 °F 68% 30.05 in 10.0 mi SE 5.8 mph - N/A   Clear
3:15 PM 47.7 °F - 37.6 °F 68% 30.05 in 10.0 mi SE 3.5 mph - N/A   Clear
3:35 PM 47.7 °F - 37.4 °F 68% 30.05 in 10.0 mi SE 6.9 mph - N/A   Scattered Clouds
3:55 PM 47.7 °F - 37.6 °F 68% 30.05 in 10.0 mi South 5.8 mph - N/A   Mostly Cloudy
4:15 PM 47.7 °F - 38.3 °F 70% 30.05 in 10.0 mi SSE 4.6 mph - N/A   Mostly Cloudy
4:35 PM 47.7 °F - 38.1 °F 70% 30.05 in 10.0 mi SSE 4.6 mph - N/A   Overcast
4:55 PM 47.7 °F - 38.7 °F 71% 30.05 in 10.0 mi Calm Calm - N/A   Overcast
5:15 PM 47.7 °F - 39.2 °F 72% 30.05 in 10.0 mi Calm Calm - N/A   Scattered Clouds
5:35 PM 47.7 °F - 39.4 °F 73% 30.04 in 10.0 mi Calm Calm - N/A   Scattered Clouds
5:55 PM 47.7 °F - 39.7 °F 74% 30.04 in 10.0 mi Calm Calm - N/A   Mostly Cloudy
6:15 PM 42.8 °F - 38.7 °F 85% 30.05 in 10.0 mi Calm Calm - N/A   Overcast
6:35 PM 42.8 °F - 40.1 °F 90% 30.05 in 10.0 mi Calm Calm - N/A   Overcast
6:55 PM 42.8 °F - 39.9 °F 90% 30.05 in 10.0 mi Calm Calm - N/A   Overcast
7:15 PM 42.8 °F - 39.7 °F 89% 30.05 in 10.0 mi Calm Calm - N/A   Overcast
7:35 PM 44.6 °F - 42.3 °F 91% 30.05 in 10.0 mi Calm Calm - N/A   Overcast
7:55 PM 45.1 °F - 42.1 °F 89% 30.04 in 10.0 mi Calm Calm - N/A   Overcast
8:15 PM 45.1 °F - 42.8 °F 91% 30.04 in 7.0 mi Calm Calm - N/A   Overcast
8:35 PM 47.7 °F - 43.7 °F 86% 30.03 in 10.0 mi South 6.9 mph - N/A   Overcast
8:55 PM 47.7 °F - 44.2 °F 88% 30.03 in 10.0 mi South 4.6 mph - N/A   Overcast
9:35 PM 47.7 °F - 46.4 °F 95% 30.02 in 7.0 mi Calm Calm - N/A   Overcast
9:55 PM 47.7 °F - 46.4 °F 95% 30.02 in 10.0 mi Calm Calm - N/A   Overcast
10:15 PM 47.7 °F - 46.6 °F 96% 30.01 in 10.0 mi Calm Calm - N/A   Overcast
10:35 PM 47.7 °F - 47.3 °F 99% 30.01 in 10.0 mi Calm Calm - N/A   Overcast
10:55 PM 47.7 °F - 47.5 °F 99% 30.00 in 10.0 mi Calm Calm - N/A   Overcast
11:15 PM 47.7 °F - 47.3 °F 99% 30.00 in 10.0 mi South 3.5 mph - N/A   Overcast
11:35 PM 47.7 °F - 47.3 °F 99% 30.00 in 7.0 mi Calm Calm - N/A   Overcast
11:55 PM 47.7 °F - 47.7 °F 100% 30.00 in 7.0 mi NW 3.5 mph - N/A   Overcast